Dothan, AL

11:15 AM CDT on July 27, 2017 (GMT -0500)
Dothan Regional

Weather History for KDHN - March, 2013

Change the Weather History Date:

Friday, March 22, 2013

  Actual Average Record
Temperature  
Mean Temperature 51 °F 60 °F  
Max Temperature 56 °F 72 °F 88 °F (2017)
Min Temperature 45 °F 48 °F 31 °F (1960)
Degree Days  
Heating Degree Days 14 6  
Month to date heating degree days 248 166  
Since 1 July heating degree days 1455 1725  
Cooling Degree Days 0 1  
Month to date cooling degree days 4 21  
Year to date cooling degree days 42 31  
Moisture  
Dew Point 32 °F    
Average Humidity 50    
Maximum Humidity 74    
Minimum Humidity 32    
Precipitation  
Precipitation T in 0.19 in 1.58 in (2005)
Month to date precipitation 0.62 3.76  
Year to date precipitation 7.95 13.16  
Sea Level Pressure  
Sea Level Pressure 30.01 in    
Wind  
Wind Speed 7 mph (East)    
Max Wind Speed 14 mph    
Max Gust Speed -    
Visibility 10 miles    
Events Rain    
T = Trace of Precipitation, MM = Missing Value Source: NWS Daily Summary

Daily Weather History Graph

Daily Weather History Graph

Search for Another Location

Airport or City:

Trip Planner

Search our weather history database for the weather conditions in past years. The results will help you decide how hot, cold, wet, or windy it might be!

Date:

Astronomy

Mar. 22, 2013 Rise Set
Actual Time 6:42 AM CDT 6:54 PM CDT
Civil Twilight 6:18 AM CDT 7:19 PM CDT
Nautical Twilight 5:50 AM CDT 7:47 PM CDT
Astronomical Twilight 5:21 AM CDT 8:15 PM CDT
Moon 2:36 PM CDT (3/22) 3:26 AM CDT (3/22)
Length of Visible Light 13h 00m
Length of Day
12h 12m
Waxing Gibbous, 77% of the Moon is Illuminated
Mar 22
Waxing Gibbous
Mar 27
Full
Apr 2
Last Quarter
Apr 10
New
Apr 18
First Quarter

Hourly Weather History & Observations

Time (CDT) Temp. Windchill Dew Point Humidity Pressure Visibility Wind Dir Wind Speed Gust Speed Precip Events Conditions
12:53 AM 48.9 °F - 32.0 °F 52% 29.98 in 10.0 mi NE 3.5 mph - N/A   Mostly Cloudy
1:53 AM 48.9 °F - 30.0 °F 48% 30.00 in 10.0 mi Calm Calm - N/A   Overcast
2:53 AM 48.0 °F - 28.0 °F 46% 29.99 in 10.0 mi NE 6.9 mph - N/A   Mostly Cloudy
3:53 AM 46.9 °F - 25.0 °F 42% 29.98 in 10.0 mi ENE 10.4 mph - N/A   Partly Cloudy
4:53 AM 46.0 °F 42.5 °F 24.1 °F 42% 29.98 in 10.0 mi East 6.9 mph - N/A   Partly Cloudy
5:53 AM 46.0 °F 41.9 °F 23.0 °F 40% 30.00 in 10.0 mi East 8.1 mph - N/A   Mostly Cloudy
6:53 AM 46.0 °F 42.5 °F 24.1 °F 42% 30.04 in 10.0 mi East 6.9 mph - N/A   Scattered Clouds
7:53 AM 46.9 °F - 24.1 °F 41% 30.06 in 10.0 mi East 8.1 mph - N/A   Overcast
8:53 AM 48.9 °F - 24.1 °F 38% 30.07 in 10.0 mi East 12.7 mph - N/A   Scattered Clouds
9:53 AM 52.0 °F - 25.0 °F 35% 30.06 in 10.0 mi East 12.7 mph - N/A   Partly Cloudy
10:53 AM 53.1 °F - 24.1 °F 32% 30.05 in 10.0 mi East 10.4 mph - N/A   Mostly Cloudy
11:53 AM 54.0 °F - 27.0 °F 35% 30.05 in 10.0 mi East 8.1 mph - 0.00 in Rain Light Rain
12:53 PM 54.0 °F - 32.0 °F 43% 30.03 in 10.0 mi ENE 10.4 mph - 0.00 in   Overcast
1:53 PM 54.0 °F - 32.0 °F 43% 30.02 in 10.0 mi ENE 10.4 mph - N/A   Overcast
2:53 PM 54.0 °F - 33.1 °F 45% 30.00 in 10.0 mi ENE 11.5 mph - N/A   Overcast
3:53 PM 53.1 °F - 36.0 °F 52% 30.00 in 10.0 mi ENE 13.8 mph - N/A   Overcast
4:53 PM 54.0 °F - 37.9 °F 55% 29.99 in 10.0 mi East 12.7 mph - N/A   Overcast
5:53 PM 54.0 °F - 37.9 °F 55% 29.99 in 10.0 mi East 13.8 mph - N/A   Overcast
6:53 PM 53.1 °F - 39.9 °F 61% 30.00 in 10.0 mi East 9.2 mph - N/A   Overcast
7:53 PM 52.0 °F - 41.0 °F 66% 29.99 in 10.0 mi East 5.8 mph - N/A   Mostly Cloudy
8:53 PM 52.0 °F - 41.0 °F 66% 30.00 in 10.0 mi East 5.8 mph - N/A   Mostly Cloudy
9:53 PM 52.0 °F - 41.0 °F 66% 30.00 in 10.0 mi ESE 6.9 mph - N/A   Overcast
10:53 PM 52.0 °F - 42.1 °F 69% 30.00 in 10.0 mi East 8.1 mph - N/A   Overcast
11:53 PM 50.0 °F - 42.1 °F 74% 29.99 in 10.0 mi East 5.8 mph - N/A   Clear